Location: Unspecified
(0.0000°N, 0.0000°E)
Time: 11:21:23
(UTC+00:00)

Courier 1B - Pass Details

Date: 24 November 2019
Orbit: 963 x 1209 km, 28.3° (Epoch: 14 December)

Event Time Altitude Azimuth Distance (km) Brightness Sun altitude
Rises 22:43:50 0° 233° (SW) 4,076 11.1 -64.3°
Enters shadow 22:43:54 - 233° (SW) 4,054 11.1 -64.3°
Reaches altitude 10° 22:46:42 10° 229° (SW) 3,128 - -64.7°
Maximum altitude 22:54:27 62° 150° (SSE) 1,335 - -65.7°
Drops below altitude 10° 23:02:09 10° 70° (ENE) 3,111 - -66.7°
Sets 23:04:59 0° 67° (ENE) 4,053 - -67.0°
